This is the latest recevied weather packets stored in our database for station/object W0PE-1. If no packets are shown the sender has not sent any weather packets the latest 10 day(s).
| Time | Temp. | Humidity | Pressure | Rain* | Wind** | Luminosity | Snow |
|---|---|---|---|---|---|---|---|
| 1777425315 | 21.11° C | 45% | 1015.2 hPa | 0 mm | - | - | - |
| 1777424413 | 21.11° C | 45% | 1015.1 hPa | 0 mm | - | - | - |
| 1777423512 | 21.11° C | 46% | 1015.1 hPa | 0 mm | - | - | - |
| 1777422612 | 21.67° C | 45% | 1015.1 hPa | 0 mm | - | - | - |
| 1777421712 | 21.67° C | 45% | 1015 hPa | 0 mm | - | - | - |
| 1777420810 | 21.67° C | 45% | 1015 hPa | 0 mm | - | - | - |
| 1777419909 | 22.22° C | 44% | 1015.1 hPa | 0 mm | - | - | - |
| 1777419008 | 22.22° C | 44% | 1015.2 hPa | 0 mm | - | - | - |
| 1777418107 | 22.22° C | 45% | 1015.2 hPa | 0 mm | - | - | - |
| 1777417207 | 22.22° C | 45% | 1015.1 hPa | 0 mm | - | - | - |
| 1777416306 | 22.78° C | 45% | 1015.3 hPa | 0 mm | - | - | - |
| 1777415406 | 23.33° C | 45% | 1015.3 hPa | 0 mm | - | - | - |
| 1777414502 | 23.33° C | 44% | 1015.3 hPa | 0 mm | - | - | - |
| 1777413601 | 23.33° C | 45% | 1015.4 hPa | 0 mm | - | - | - |
| 1777412762 | 23.33° C | 44% | 1015.5 hPa | 0 mm | - | - | - |
| 1777411867 | 23.33° C | 43% | 1015.5 hPa | 0 mm | - | - | - |
| 1777410960 | 23.89° C | 43% | 1015.6 hPa | 0 mm | - | - | - |
| 1777410061 | 23.33° C | 40% | 1015.8 hPa | 0 mm | - | - | - |
| 1777409170 | 23.89° C | 39% | 1015.7 hPa | 0 mm | - | - | - |
| 1777408255 | 22.78° C | 40% | 1015.6 hPa | 0 mm | - | - | - |
| 1777407354 | 23.89° C | 41% | 1015.8 hPa | 0 mm | - | - | - |
| 1777406460 | 22.78° C | 42% | 1015.8 hPa | 0 mm | - | - | - |
| 1777405550 | 22.78° C | 42% | 1016.1 hPa | 0 mm | - | - | - |
| 1777404648 | 22.78° C | 43% | 1016.2 hPa | 0 mm | - | - | - |
| 1777403745 | 21.67° C | 45% | 1016.5 hPa | 0 mm | - | - | - |
* Rain latest hour (hover to see other rain measurements)
** Current wind speed in m/s (hover to see current wind gust speed)